Location: Blandas
(43.9120°N, 3.5124°E)
Time: 06:40:57
(UTC+00:00)

Daily predictions for brighter satellites

Satellite Brightness Start Highest point End
(mag) Time Altitude Azimuth Time Altitude Azimuth Time Altitude Azimuth
CSL-04 Rocket 4.3 17:52:48 10° SE 17:57:43 35° ENE 18:02:42 10° N
Cosmos 1048 Rocket 4.3 17:53:16 10° N 17:58:28 50° ENE 18:03:40 10° SE
Cosmos 1464 Rocket 4.1 17:54:29 10° SSE 18:00:22 51° E 18:06:21 10° NNE
GP-B 3.9 17:59:41 10° N 18:04:04 58° W 18:08:25 10° SSW
CZ-2C R/B 3.6 17:59:00 10° SE 18:04:07 44° ENE 18:09:29 10° N
Okean-O 2.6 18:01:19 10° SSE 18:05:44 71° ENE 18:10:10 10° N
Cosmos 2285 Rocket 4.5 18:00:49 10° SSE 18:06:34 39° E 18:12:22 10° NE
CREW DRAGON DEMO-1 DEB 3.1 18:06:35 10° NW 18:09:34 52° NNE 18:12:31 10° ESE
ISS -1.9 18:09:47 10° WNW 18:12:37 24° N 18:15:28 10° NE
Meteor 1-12 Rocket 4.3 18:07:12 10° S 18:13:01 71° E 18:18:46 10° NNE
Cosmos 1975 Rocket 4.0 18:11:02 10° NNW 18:15:14 53° W 18:19:26 10° S
Ariane Rocket 4.3 18:14:27 10° ESE 18:18:05 20° ENE 18:21:44 10° NNE
Cosmos 2151 Rocket 3.7 18:14:57 10° S 18:19:19 55° E 18:23:44 10° NNE
Cosmos 1674 3.5 18:17:57 10° NNE 18:21:24 31° ENE 18:24:50 10° SE
USA 116 3.8 18:21:51 10° NNE 18:25:40 60° ESE 18:29:57 10° S
Cosmos 1891 Rocket 4.4 18:19:56 10° S 18:26:02 86° E 18:32:06 10° N
COSMO-SKYMED 1 3.7 18:22:52 10° N 18:27:04 49° WNW 18:31:14 10° SW
NOSS 3-2 (C) 4.1 18:21:00 10° NW 18:28:34 76° NE 18:37:07 10° SE
CZ-2D R/B 4.1 18:26:46 10° S 18:30:35 55° W 18:34:25 10° NNW
H-2A R/B 2.1 18:25:52 10° SSE 18:30:45 55° ENE 18:35:47 10° N
NOSS 3-4 (A) 3.5 18:25:52 10° SSW 18:31:31 50° ESE 18:37:28 10° NE
NOSS 3-4 (C) 3.5 18:25:59 10° SSW 18:31:38 50° ESE 18:37:35 10° NE
ARGOS 3.5 18:27:06 10° SE 18:32:09 44° ENE 18:37:15 10° N
SJ-11-01 4.3 18:29:55 10° SSE 18:34:33 62° ENE 18:39:11 10° N
In-Cosmos 22 4.2 18:30:29 10° NNW 18:35:51 85° W 18:41:17 10° S
Milstar 3 Cent rocket 4.2 18:29:51 10° SW 18:36:19 21° S 18:40:39 10° SE
CZ-2C R/B 3.6 18:32:20 10° NE 18:37:01 27° E 18:41:43 10° SSE
SJ-6B 4.2 18:37:25 18° E 18:38:14 19° ENE 18:40:56 10° NNE
CENTAUR R/B 3.2 18:32:10 10° NW 18:40:20 83° NE 18:49:13 10° SE
Aureole 2 Rocket 4.5 18:39:17 10° SSE 18:39:38 12° SSE 18:39:38 12° SSE
Nadezhda 4 Rocket 3.9 18:35:41 10° N 18:41:49 74° E 18:47:57 10° SSE
Cosmos 1733 3.9 18:40:15 10° SSE 18:43:40 32° E 18:47:05 10° NNE
Shenzhou-11 Module 1.2 18:44:23 10° WSW 18:46:24 49° S 18:46:32 48° SSE
BREEZE-M DEB (TANK) 3.4 18:44:57 10° SW 18:48:03 78° SE 18:57:56 10° ENE
BREEZE-M TANK 3.4 18:38:27 10° WSW 18:50:28 80° SSE 18:53:09 21° E
Cosmos 2082 Rocket 3.6 18:47:16 10° N 18:51:20 20° NE 18:53:09 17° ENE
TSX-5 3.9 18:48:04 10° SSW 18:51:49 66° ESE 18:56:39 10° NNE
Meteor 2-13 Rocket 4.5 18:45:45 10° N 18:51:50 58° ENE 18:57:51 10° SSE
CZ-4 R/B 2.9 18:48:25 10° S 18:52:24 40° W 18:56:19 10° NNW
ATLAS 2AS CENTAUR R/B 3.0 18:46:03 10° SSW 18:53:53 68° ESE 19:01:44 10° NE
ATLAS 3B R/B 3.3 18:48:07 10° NNW 18:54:35 42° NE 18:58:39 22° E
SL-08 RB Rocket 3.9 18:53:32 16° SE 18:56:58 49° ENE 19:01:21 10° N
Okean 1 Rocket 3.0 18:52:56 10° S 18:57:21 64° E 19:01:49 10° NNE
Cosmos 1626 2.7 18:55:03 10° N 18:58:28 34° ENE 18:58:55 33° E
USA 186 2.2 18:59:18 38° E 18:59:43 40° ENE 19:02:51 10° N
Cosmos 1340 Rocket 3.3 18:59:09 24° SE 19:00:52 35° E 19:04:32 10° NNE
Cosmos 1025 Rocket 4.3 18:57:40 10° NNW 19:01:50 43° W 19:05:58 10° SSW
Cosmos 2034 Rocket 4.2 18:56:29 10° SSW 19:02:50 76° W 19:09:11 10° N
MOS 1 Rocket 3.0 18:59:24 10° NNE 19:03:45 88° WNW 19:08:01 10° SSW
Cosmos 1805 3.1 19:00:38 10° S 19:04:31 85° E 19:08:28 10° N
Lacrosse 5 rocket 3.4 19:04:20 10° NNW 19:07:30 19° NNE 19:09:19 15° NE
YAOGAN 1 4.3 19:04:26 10° SSW 19:08:22 34° W 19:12:19 10° NNW
KORONAS-FOTON 4.2 19:06:59 10° NNW 19:10:53 67° W 19:14:45 10° S
Cosmos 1844 Rocket 4.0 19:06:01 10° SW 19:11:15 41° WNW 19:16:33 10° NNE
Resurs 01 Rocket 3.4 19:13:06 18° NE 19:13:06 18° NE 19:15:18 10° NNE
MOS 1 4.4 19:09:46 24° SE 19:13:08 54° ENE 19:18:40 10° N
SPOT 3 Rocket 4.3 19:19:27 32° ENE 19:19:50 32° ENE 19:24:23 10° N
Cosmos 2278 Rocket 2.3 19:15:04 10° S 19:20:30 51° ESE 19:25:58 10° NE
Abrixas rocket 3.2 19:20:21 10° W 19:22:45 33° SW 19:22:45 33° SW
COSMOS 2406 3.1 19:18:17 10° NNW 19:23:58 69° ENE 19:26:16 37° SE
Cosmos 1892 Rocket 3.7 19:22:50 10° N 19:26:55 49° ENE 19:26:55 49° ENE
Cosmos 1634 Rocket 3.8 19:22:20 10° S 19:28:29 79° E 19:34:43 10° N
Resurs 1-3 4.3 19:30:46 37° NE 19:30:46 37° NE 19:34:16 10° N
COSMOS 2455 4.3 19:25:25 10° S 19:38:01 - NE 19:27:13 19° SSE
OBJECT-B 3.0 19:37:55 18° N 19:37:55 18° N 19:38:56 10° N
Meteor 1-22 Rocket 4.3 19:32:18 10° S 19:38:14 88° W 19:44:22 10° N
Cosmos 1833 Rocket 2.6 19:32:55 10° NNW 19:38:34 67° ENE 19:39:46 52° ESE
Meteor 1-24 Rocket 3.7 19:34:49 10° NNW 19:40:28 84° W 19:43:59 25° S
SL-14 R/B 3.4 19:41:37 10° NNW 19:45:35 71° W 19:45:43 70° WSW
Cosmos 2026 Rocket 4.1 19:39:41 10° N 19:46:05 78° W 19:51:05 17° S
Meteor 2-5 Rocket 4.3 19:40:39 10° NNW 19:46:15 58° W 19:51:42 11° S
ISS -1.6 19:47:23 10° NW 19:49:28 22° N 19:49:28 22° N
Cosmos 1655 Rocket 4.2 19:45:17 10° N 19:51:24 50° ENE 19:51:29 50° E
Cosmos 2098 Rocket 4.1 19:48:26 10° N 19:54:08 48° ENE 19:54:08 48° ENE
Ariane Rocket 3.5 19:54:13 29° SSW 19:56:37 56° W 20:01:38 10° NNW
Cosmos 2279 Rocket 3.9 19:58:16 23° S 20:02:23 89° ESE 20:08:42 10° N
Lacrosse 4 Rocket 2.6 19:59:36 10° NNW 20:02:10 36° NNW 20:02:10 36° NNW
Cosmos 2180 Rocket 4.4 20:03:56 65° SSE 20:04:45 74° E 20:11:07 10° NNE
H-2A R/B 4.5 20:07:02 10° SW 20:10:33 19° W 20:14:08 10° NW
SJ-6B 4.4 20:13:03 31° W 20:13:03 31° W 20:16:07 10° NNW
CZ-2C R/B 3.7 20:12:09 10° N 20:17:27 46° WNW 20:22:47 10° SW
Gbstr 26 Del rocket 4.2 20:21:38 10° SW 20:28:40 85° SSE 20:29:12 78° E
Cosmos 2082 Rocket 2.6 20:30:25 10° NNW 20:35:00 59° NW 20:35:00 59° NW
Cosmos 909 Rocket 4.2 20:36:48 10° NW 20:42:24 69° NW 20:42:24 69° NW
ATLAS 3B R/B 3.2 20:38:48 10° NW 20:45:26 50° WSW 20:45:56 50° SW
ATLAS 2AS CENTAUR R/B 4.3 20:38:08 10° WSW 20:45:27 38° NW 20:52:40 10° NNE
Lacrosse 5 rocket 3.7 20:43:06 10° NW 20:44:56 23° NNW 20:44:56 23° NNW
Resurs 01 Rocket 3.7 20:50:41 25° NW 20:50:41 25° NW 20:52:40 10° NNW
Cosmos 2266 Rocket 4.5 20:44:09 10° N 20:48:45 54° NNW 20:48:45 54° NNW
Cosmos 2278 Rocket 4.0 21:00:05 10° WSW 21:04:52 27° NW 21:09:40 10° N
